FORMOSAT-3 FM3 (29050 NORAD) Tracking and Keplerian Element Data

This shows tracking and keplerian element data for the satellite.

Feedback or suggestion? Click here.




ElementValue
Catalog29050
NameFORMOSAT-3 FM3
Epoch Orbit65417
Epoch Day198.94369264
Epoch Year2018
RAAN36.5801
Inclination72.0158
Eccentricity0.004944
Argument of Perigee159.4931
Mean Anonmoly200.8222
Mean Motion14.58684026
Decay Rate8.9E-07
L11 29050U 06011D 18198.94369264 .00000089 00000-0 29220-4 0 9990
L22 29050 72.0158 36.5801 0049440 159.4931 200.8222 14.58684026654170

Live tracking and technical data element details for FORMOSAT-3 FM3 (NORAD 29050). FORMOSAT-3 FM3 can be tracked NOW for your location showing map with azimuth and elevation plus other details from your city location.

Track the satellite on the map from your city or location and see movement details for azimuth, elevation, latitude, longitude, range, height, and movement on the map or in text.







IsCatalogInMostPopularTable: catalog: 29050, numindb: 35
Update: records affected: 1



GetName: 29050 FORMOSAT-3 FM3

Hit Count: updated at: Wed, 18 Jul 2018 20:24:38 GMT